Find Starlink 31097

NORAD ID: 58718 Int'l Des: 2024-002 Owner: SPXS Country: US Constellation: starlink operational
LEOCIRCULAR

Current View

Loading 3D Globe...

About Starlink 31097

Starlink 31097 (NORAD 58718) is a starlink constellation satellite (v2 mini) launched Jan 3, 2024 by SPXS of US. It operates in LEO, CIRCULAR orbit with a mass of 730.00 kg.

Upcoming Passes

Passes for default location (London). Set your location on the main map for personalized predictions.

Altitude History

Loading altitude history...

Two-Line Element Set

1 58718U 24002P 26237.18729649 -.00000242 00000-0 39761-5 0 9993
2 58718 53.1608 166.5308 0001292 95.9503 264.1647 15.34392726147822
Epoch: Aug 25, 2026 • Age: 22 hours

Current Status

Altitude 466.7 km
Apogee / Perigee N/A
Velocity 7.64 km/s
Sub-Earth Point 45.49°N, 84.83°W
Launch Date Jan 3, 2024
Age 2.6 years
Type internet

Technical Details

Classification Payload
Mass 730.00 kg
Dry Mass 700.00 kg
Total Mass 730.00 kg
Length 0.30 m
Diameter 4.10 m
Span 29.00 m
Shape Box + pan
Manufacturer SPXS
Bus Type Starlink V2M
Phase Status In Orbit
Owner/State SPXS/US

Most Searched